Date String (YYYY-MM-DD hh:mm:ss) UTC,Instrument flags,absolute air pressure of the measurement (hPa),sample flow rate (lpm),inlet stack bypass flow (lpm),air temperature of the measurement (°C),ambient temperature measured by the external sensor (°C),aerosol sample conditioner tube jacket temperature (°C),OPC LED temperature (°C),internal box temperature (°C),relative humidity of the measurement (%),span deviation,mass concentration of particles derived from Lorenz-Mie calculation of OPC scattering (μg/m³),mass concentration of particles derived from Lorenz-Mie calculation of OPC scattering (μg/m³),mass concentration of particles derived from Lorenz-Mie calculation of OPC scattering (μg/m³)
DateTimeUTC,F1_M11,P_M11,Q1_M11,Q2_M11,T1_M11,T2_M11,T3_M11,T4_M11,T5_M11,U1_M11,ZSPAN_M11,X0_M11,X2_M11,X1_M11
2024-04-13 19:00:00,SystemResetWarning,0826.9,5.00,000.00,025.0,021.7,000.0,033.7,025.5,013.2,0000.0,0013.82,0004.02,0002.31
2024-04-13 19:01:00,SystemResetWarning,0826.9,5.02,000.00,024.7,021.9,000.0,033.7,025.5,013.0,0000.0,0014.03,0004.06,0002.32
2024-04-13 19:02:00,SystemResetWarning,0826.9,5.00,000.00,024.7,022.3,000.0,033.5,025.7,013.2,0000.0,0014.74,0004.12,0002.32
2024-04-13 19:03:00,SystemResetWarning,0827.0,5.00,000.00,024.7,022.6,000.0,033.4,026.1,012.9,0000.0,0015.68,0004.16,0002.31
2024-04-13 19:04:00,SystemResetWarning,0827.0,5.00,000.00,024.8,023.0,000.0,033.3,026.3,012.9,0000.0,0016.08,0004.13,0002.31
2024-04-13 19:05:00,SystemResetWarning,0827.0,5.00,000.00,024.8,023.3,000.0,033.3,026.5,012.9,0000.0,0015.77,0004.13,0002.30
2024-04-13 19:06:00,SystemResetWarning,0827.0,5.01,000.00,024.9,023.6,000.0,033.3,026.6,013.1,0000.0,0015.25,0004.15,0002.28
2024-04-13 19:07:00,SystemResetWarning,0827.0,5.01,000.00,024.9,023.9,000.0,033.3,026.7,012.6,0000.0,0014.74,0004.11,0002.25
2024-04-13 19:08:00,SystemResetWarning,0827.1,5.00,000.00,025.0,024.1,000.0,033.3,026.9,012.0,0000.0,0015.04,0004.08,0002.23
2024-04-13 19:09:00,SystemResetWarning,0827.0,5.00,000.00,025.1,024.3,000.0,033.3,027.0,012.2,0000.0,0015.21,0004.01,0002.25
2024-04-13 19:10:00,SystemResetWarning,0827.1,4.99,000.00,025.1,024.4,000.0,033.3,027.1,012.1,0000.0,0014.52,0004.01,0002.26
2024-04-13 19:11:00,SystemResetWarning,0827.1,5.00,000.00,025.2,024.6,000.0,033.4,027.1,012.0,0000.0,0014.67,0004.02,0002.26
2024-04-13 19:12:00,SystemResetWarning,0827.1,5.00,000.00,025.3,024.7,000.0,033.4,027.2,011.8,0000.0,0015.14,0004.01,0002.27
2024-04-13 19:13:00,SystemResetWarning,0827.1,5.01,000.00,025.4,024.8,000.0,033.4,027.3,012.1,0000.0,0014.60,0003.95,0002.27
2024-04-13 19:14:00,SystemResetWarning,0827.1,5.01,000.00,025.4,024.9,000.0,033.5,027.3,012.4,0000.0,0013.83,0003.93,0002.26
2024-04-13 19:15:00,SystemResetWarning,0827.1,5.00,000.00,025.5,025.0,000.0,033.5,027.4,012.2,0000.0,0013.57,0003.96,0002.28
2024-04-13 19:16:00,SystemResetWarning,0827.1,5.00,000.00,025.5,025.1,000.0,033.5,027.5,012.0,0000.0,0013.26,0003.94,0002.30
2024-04-13 19:17:00,SystemResetWarning,0827.1,5.00,000.00,025.6,025.1,000.0,033.6,027.5,012.8,0000.0,0013.23,0003.95,0002.30
2024-04-13 19:18:00,SystemResetWarning,0827.1,5.00,000.00,025.7,025.2,000.0,033.6,027.6,012.3,0000.0,0013.05,0003.99,0002.34
2024-04-13 19:19:00,SystemResetWarning,0827.1,5.00,000.00,025.7,024.9,000.0,033.7,027.4,012.2,0000.0,0012.74,0004.03,0002.37
2024-04-13 19:20:00,SystemResetWarning,0827.1,4.99,000.00,025.4,022.8,000.0,033.8,026.3,012.8,0000.0,0012.49,0004.06,0002.37
2024-04-13 19:21:00,SystemResetWarning,0827.0,5.02,000.00,024.9,021.6,000.0,033.7,025.5,012.3,0000.0,0012.71,0004.03,0002.36
2024-04-13 19:22:00,SystemResetWarning,0827.0,5.00,000.00,024.8,022.0,000.0,033.7,025.5,012.5,0000.0,0012.13,0004.02,0002.37
2024-04-13 19:23:00,SystemResetWarning,0827.1,5.00,000.00,024.7,022.4,000.0,033.5,025.8,012.5,0000.0,0011.83,0004.04,0002.36
2024-04-13 19:24:00,SystemResetWarning,0827.0,5.00,000.00,024.7,022.8,000.0,033.4,026.2,012.7,0000.0,0012.55,0004.01,0002.33
2024-04-13 19:25:00,SystemResetWarning,0827.1,5.00,000.00,024.8,023.1,000.0,033.3,026.4,012.3,0000.0,0012.72,0004.01,0002.34
2024-04-13 19:26:00,SystemResetWarning,0827.1,5.00,000.00,024.9,023.4,000.0,033.3,026.6,012.5,0000.0,0012.14,0004.00,0002.36
2024-04-13 19:27:00,SystemResetWarning,0827.1,5.00,000.00,024.9,023.7,000.0,033.3,026.7,012.3,0000.0,0011.75,0003.96,0002.35
2024-04-13 19:28:00,SystemResetWarning,0827.1,5.00,000.00,025.0,024.0,000.0,033.3,026.8,011.5,0000.0,0011.95,0003.96,0002.34
2024-04-13 19:29:00,SystemResetWarning,0827.0,5.00,000.00,025.0,024.2,000.0,033.3,026.9,012.1,0000.0,0012.36,0003.94,0002.33
2024-04-13 19:30:00,SystemResetWarning,0827.0,5.00,000.00,025.1,024.3,000.0,033.3,027.0,011.8,0000.0,0012.74,0003.87,0002.30
2024-04-13 19:31:00,SystemResetWarning,0827.1,5.00,000.00,025.2,024.5,000.0,033.3,027.1,012.5,0000.0,0013.43,0003.88,0002.31
2024-04-13 19:32:00,SystemResetWarning,0827.0,5.00,000.00,025.2,024.6,000.0,033.4,027.1,011.9,0000.0,0013.52,0003.90,0002.32
2024-04-13 19:33:00,SystemResetWarning,0827.0,5.00,000.00,025.3,024.8,000.0,033.4,027.2,011.8,0000.0,0014.10,0003.88,0002.32
2024-04-13 19:34:00,SystemResetWarning,0827.1,5.00,000.00,025.4,024.9,000.0,033.4,027.3,010.9,0000.0,0014.24,0003.87,0002.33
2024-04-13 19:35:00,SystemResetWarning,0827.0,5.00,000.00,025.5,025.0,000.0,033.5,027.4,011.6,0000.0,0013.64,0003.91,0002.36
2024-04-13 19:36:00,SystemResetWarning,0827.1,5.00,000.00,025.5,025.1,000.0,033.5,027.4,011.1,0000.0,0013.70,0003.96,0002.37
2024-04-13 19:37:00,SystemResetWarning,0827.1,5.00,000.00,025.6,025.1,000.0,033.6,027.5,011.1,0000.0,0013.71,0003.96,0002.35
2024-04-13 19:38:00,SystemResetWarning,0827.0,4.99,000.00,025.6,024.4,000.0,033.6,027.0,010.9,0000.0,0013.86,0004.00,0002.35
2024-04-13 19:39:00,SystemResetWarning,0826.9,5.01,000.00,025.2,022.3,000.0,033.7,025.8,011.7,0000.0,0013.81,0004.03,0002.35
2024-04-13 19:40:00,SystemResetWarning,0827.0,5.01,000.00,024.8,021.8,000.0,033.7,025.4,011.7,0000.0,0013.75,0004.00,0002.37
2024-04-13 19:41:00,SystemResetWarning,0826.9,5.00,000.00,024.7,022.2,000.0,033.5,025.6,011.2,0000.0,0013.68,0004.04,0002.38
2024-04-13 19:42:00,SystemResetWarning,0827.0,5.00,000.00,024.7,022.6,000.0,033.4,026.0,010.8,0000.0,0012.77,0004.04,0002.37
2024-04-13 19:43:00,SystemResetWarning,0827.0,5.01,000.00,024.7,023.0,000.0,033.3,026.3,011.2,0000.0,0012.03,0004.01,0002.36
2024-04-13 19:44:00,SystemResetWarning,0826.9,5.00,000.00,024.8,023.3,000.0,033.3,026.5,011.5,0000.0,0012.06,0004.01,0002.36
2024-04-13 19:45:00,SystemResetWarning,0826.9,4.99,000.00,024.9,023.6,000.0,033.3,026.6,011.3,0000.0,0012.34,0004.01,0002.36
2024-04-13 19:46:00,SystemResetWarning,0826.9,5.00,000.00,025.0,023.9,000.0,033.3,026.8,011.7,0000.0,0012.13,0003.95,0002.36
2024-04-13 19:47:00,SystemResetWarning,0827.0,5.00,000.00,025.0,024.1,000.0,033.3,026.9,010.9,0000.0,0011.79,0003.87,0002.36
2024-04-13 19:48:00,SystemResetWarning,0826.9,5.01,000.00,025.1,024.3,000.0,033.3,027.0,010.7,0000.0,0012.24,0003.88,0002.36
2024-04-13 19:49:00,SystemResetWarning,0827.0,5.00,000.00,025.2,024.5,000.0,033.3,027.1,010.9,0000.0,0012.23,0003.84,0002.34
2024-04-13 19:50:00,SystemResetWarning,0827.0,5.00,000.00,025.2,024.6,000.0,033.3,027.1,010.6,0000.0,0012.09,0003.77,0002.34
2024-04-13 19:51:00,SystemResetWarning,0827.0,5.00,000.00,025.3,024.8,000.0,033.4,027.2,010.7,0000.0,0011.85,0003.77,0002.33
2024-04-13 19:52:00,SystemResetWarning,0826.9,5.00,000.00,025.4,024.9,000.0,033.4,027.3,011.0,0000.0,0011.12,0003.73,0002.32
2024-04-13 19:53:00,SystemResetWarning,0827.0,5.00,000.00,025.5,025.0,000.0,033.5,027.4,010.8,0000.0,0011.13,0003.70,0002.33
2024-04-13 19:54:00,SystemResetWarning,0826.9,4.99,000.00,025.4,024.3,000.0,033.5,026.9,010.8,0000.0,0011.75,0003.74,0002.35
2024-04-13 19:55:00,SystemResetWarning,0826.9,4.99,000.00,025.1,022.3,000.0,033.6,025.8,011.2,0000.0,0011.56,0003.75,0002.36
2024-04-13 19:56:00,SystemResetWarning,0826.8,5.02,000.00,024.7,021.8,000.0,033.6,025.5,011.5,0000.0,0010.76,0003.72,0002.35
2024-04-13 19:57:00,SystemResetWarning,0826.8,4.99,000.00,024.6,022.3,000.0,033.4,025.6,011.6,0000.0,0010.98,0003.81,0002.36
2024-04-13 19:58:00,SystemResetWarning,0826.9,5.00,000.00,024.6,022.6,000.0,033.3,026.0,011.3,0000.0,0011.37,0003.91,0002.41
2024-04-13 19:59:00,SystemResetWarning,0826.9,5.01,000.00,024.7,023.0,000.0,033.2,026.2,011.2,0000.0,0010.84,0003.91,0002.43
